sat.trackr.live / text

‹ back to catalog

ONEWEB-0541

NORAD 55142 · 2023-004C

PAYLOAD ACTIVE UNKNOWN

§ Identity

Operator
Country
UK
Launch date
2023-01-10
Launch site
AFETR
Launch vehicle
Mass (kg)
RCS (m²)

Purposes: comms

External: N2YO · Heavens-Above · Gunter

§ Orbital elements

Epoch: 2026-05-25T03:22:34.855680Z

Period
109.81 min
Inclination
87.8916°
Eccentricity
0.0001658
Mean motion
13.11415477 rev/d
Perigee alt
1,216.4 km
Apogee alt
1,218.9 km
Semi-major
7,595.8 km
B*
-3.1962e-4
RAAN
25.6415°
Arg perigee
86.3512°
Mean anomaly
273.7806°
Rev number
16,292

§ Raw data

ONEWEB-05411 55142U 23004C   26145.14068120 -.00000101  00000+0 -31962-3 0  99932 55142  87.8916  25.6415 0001658  86.3512 273.7806 13.11415477162923

JSON: /api/v1/satellites/55142 · /tle

For live sub-satellite position, see the globe view (requires WebGL).

§ Visibility from observer

Set your observer location to see the next 7 days of passes ≥ 10°. The values pass through the URL so the page stays shareable.

No JS? Fill the form by hand. The geolocation button needs JavaScript.